GW4639 Weather Reports


Display with metric or nautical units.
time (UTC)temp
F
wind
direction
speed
MPH
gust
MPH
rain 1hr
in
rain 24hr
in
rain mn
in
humidity
%
barometer
mb
20260906143210 72 59 2.0 3.0 0.00 0.00 0.00 88 1022.6
20260906142709 73 58 4.0 6.0 0.00 0.00 0.00 88 1022.6
20260906142205 72 55 2.0 3.0 0.00 0.00 0.00 87 1023.0
20260906141703 72 58 1.0 1.0 0.00 0.00 0.00 88 1022.6
20260906141158 72 40 3.0 5.0 0.00 0.00 0.00 90 1023.0
20260906140657 71 90 2.0 2.0 0.00 0.00 0.00 91 1022.6
20260906140153 71 109 4.0 6.0 0.00 0.00 0.00 91 1022.6
20260906135649 71 63 1.0 1.0 0.00 0.00 0.00 92 1022.6
20260906135146 70 50 2.0 3.0 0.00 0.00 0.00 91 1022.6
20260906134641 71 57 3.0 6.0 0.00 0.00 0.00 91 1022.6
20260906134136 70 55 5.0 7.0 0.00 0.00 0.00 91 1023.0
20260906133631 70 44 2.0 3.0 0.00 0.00 0.00 92 1022.6
20260906133126 70 5 2.0 3.0 0.00 0.00 0.00 93 1022.6
20260906132621 69 46 1.0 1.0 0.00 0.00 0.00 97 1022.6
20260906132117 68 41 2.0 2.0 0.00 0.00 0.00 99 1022.6
20260906131613 68 58 3.0 3.0 0.00 0.00 0.00 99 1022.6
20260906131108 67 36 0.0 1.0 0.00 0.00 0.00 99 1022.6
20260906130608 66 38 0.0 1.0 0.00 0.00 0.00 99 1022.6
20260906130103 66 351 0.0 0.0 0.00 0.00 0.00 99 1022.6
20260906125600 65 52 1.0 2.0 0.00 0.00 0.00 99 1022.6
20260906125054 64 318 1.0 1.0 0.00 0.00 0.00 99 1022.3
20260906124549 64 321 0.0 0.0 0.00 0.00 0.00 99 1022.3
20260906124044 64 321 0.0 1.0 0.00 0.00 0.00 99 1022.3
20260906123544 64 320 0.0 1.0 0.00 0.00 0.00 99 1022.3
20260906123040 63 320 0.0 1.0 0.00 0.00 0.00 99 1021.9
20260906122538 63 320 0.0 0.0 0.00 0.00 0.00 99 1021.9
20260906122035 63 321 0.0 0.0 0.00 0.00 0.00 99 1022.3
20260906121531 63 321 0.0 0.0 0.00 0.00 0.00 99 1021.9
20260906121027 62 321 0.0 0.0 0.00 0.00 0.00 99 1022.3
20260906120521 62 321 1.0 2.0 0.00 0.00 0.00 99 1021.9
20260906120020 62 322 0.0 0.0 0.00 0.00 0.00 99 1021.6
20260906115519 62 324 0.0 0.0 0.00 0.00 0.00 99 1021.6
20260906115014 62 324 0.0 0.0 0.00 0.00 0.00 99 1021.6
20260906114514 62 324 1.0 1.0 0.00 0.00 0.00 99 1021.6
20260906114010 63 324 0.0 0.0 0.00 0.00 0.00 99 1021.6
20260906113509 63 324 1.0 1.0 0.00 0.00 0.00 99 1021.6
20260906113004 63 325 0.0 1.0 0.00 0.00 0.00 99 1021.3
20260906112459 63 325 0.0 0.0 0.00 0.00 0.00 99 1021.3
20260906111955 63 325 0.0 0.0 0.00 0.00 0.00 99 1021.3
20260906111455 63 325 0.0 0.0 0.00 0.00 0.00 99 1021.3
20260906110955 63 325 1.0 1.0 0.00 0.00 0.00 99 1021.3
20260906110450 63 326 0.0 1.0 0.00 0.00 0.00 99 1020.8
20260906105949 63 327 0.0 0.0 0.00 0.00 0.00 99 1020.8
20260906105445 63 327 0.0 0.0 0.00 0.00 0.00 99 1021.3
20260906104941 63 330 0.0 0.0 0.00 0.00 0.00 99 1021.3
20260906104439 63 310 1.0 1.0 0.00 0.00 0.00 99 1020.8
20260906103939 63 320 1.0 1.0 0.00 0.00 0.00 99 1020.8
20260906103437 63 311 1.0 2.0 0.00 0.00 0.00 99 1020.8
20260906102932 63 291 2.0 2.0 0.00 0.00 0.00 99 1020.8
20260906102432 63 328 0.0 1.0 0.00 0.00 0.00 99 1020.8
20260906101927 63 318 1.0 1.0 0.00 0.00 0.00 99 1020.8
20260906101422 63 262 3.0 3.0 0.00 0.00 0.00 99 1020.8
20260906100918 63 310 1.0 1.0 0.00 0.00 0.00 99 1021.3
20260906100417 63 306 2.0 2.0 0.00 0.00 0.00 99 1021.3
20260906095912 63 291 2.0 3.0 0.00 0.00 0.00 99 1021.3
20260906095408 63 308 1.0 1.0 0.00 0.00 0.00 99 1020.8
20260906094908 63 307 1.0 1.0 0.00 0.00 0.00 99 1020.5
20260906094403 63 311 1.0 1.0 0.00 0.00 0.00 99 1020.5
20260906093853 63 295 2.0 2.0 0.00 0.00 0.00 99 1020.8
20260906093349 63 286 2.0 2.0 0.00 0.00 0.00 99 1020.8
20260906092849 63 296 2.0 2.0 0.00 0.00 0.00 99 1020.8
20260906092344 63 306 1.0 1.0 0.00 0.00 0.00 99 1020.8
20260906091839 63 327 2.0 3.0 0.00 0.00 0.00 99 1020.8
20260906091335 63 288 2.0 2.0 0.00 0.00 0.00 99 1020.8
20260906090832 63 310 1.0 2.0 0.00 0.00 0.00 99 1020.5
20260906090331 64 299 2.0 3.0 0.00 0.00 0.00 99 1020.8
20260906085830 64 277 2.0 2.0 0.00 0.00 0.00 99 1020.5
20260906085324 64 328 0.0 1.0 0.00 0.00 0.00 99 1020.5
20260906084818 64 328 0.0 1.0 0.00 0.00 0.00 99 1020.5
20260906084312 64 288 1.0 1.0 0.00 0.00 0.00 99 1020.5
20260906083807 64 309 1.0 1.0 0.00 0.00 0.00 99 1020.8
20260906083303 64 306 1.0 1.0 0.00 0.00 0.00 99 1020.8
20260906082803 64 289 2.0 3.0 0.00 0.00 0.00 99 1020.5
20260906082257 64 321 1.0 1.0 0.00 0.00 0.00 99 1020.5
20260906081754 64 311 1.0 2.0 0.00 0.00 0.00 99 1020.5
20260906081249 64 306 1.0 1.0 0.00 0.00 0.00 99 1020.5
20260906080746 64 319 1.0 1.0 0.00 0.00 0.00 99 1020.5
20260906080242 64 317 1.0 2.0 0.00 0.00 0.00 99 1020.5
20260906075741 64 316 2.0 2.0 0.00 0.00 0.00 99 1020.5
20260906075236 64 309 1.0 1.0 0.00 0.00 0.00 99 1020.5
20260906074731 64 302 1.0 2.0 0.00 0.00 0.00 99 1020.5
20260906074230 64 320 1.0 1.0 0.00 0.00 0.00 99 1020.5
20260906073724 64 306 1.0 1.0 0.00 0.00 0.00 99 1020.5
20260906073219 64 318 1.0 1.0 0.00 0.00 0.00 99 1020.5
20260906072715 64 316 1.0 1.0 0.00 0.00 0.00 99 1020.5
20260906072210 63 299 1.0 2.0 0.00 0.00 0.00 99 1020.5
20260906071706 63 330 0.0 0.0 0.00 0.00 0.00 99 1020.5
20260906071201 63 330 0.0 0.0 0.00 0.00 0.00 99 1020.1
20260906070657 63 321 1.0 2.0 0.00 0.00 0.00 99 1020.1
20260906070153 63 306 1.0 1.0 0.00 0.00 0.00 99 1020.1
20260906065652 63 315 1.0 1.0 0.00 0.00 0.00 99 1020.1
20260906065148 63 319 0.0 0.0 0.00 0.00 0.00 99 1020.5
20260906064643 63 315 1.0 1.0 0.00 0.00 0.00 99 1020.1
20260906064138 63 320 0.0 0.0 0.00 0.00 0.00 99 1020.5
20260906063633 63 316 1.0 1.0 0.00 0.00 0.00 99 1020.5
20260906063129 63 314 0.0 1.0 0.00 0.00 0.00 99 1020.5
20260906062625 63 311 0.0 0.0 0.00 0.00 0.00 99 1020.5
20260906062123 63 310 0.0 1.0 0.00 0.00 0.00 99 1020.5
20260906061620 63 310 1.0 1.0 0.00 0.00 0.00 99 1020.5
20260906061119 63 310 0.0 0.0 0.00 0.00 0.00 99 1020.5
20260906060616 63 314 0.0 0.0 0.00 0.00 0.00 99 1020.5
20260906060108 63 314 0.0 0.0 0.00 0.00 0.00 99 1020.5
20260906055603 63 315 1.0 1.0 0.00 0.00 0.00 99 1020.5
20260906055058 63 321 1.0 1.0 0.00 0.00 0.00 99 1020.5
20260906054552 63 319 0.0 0.0 0.00 0.00 0.00 99 1020.1
20260906054047 63 328 1.0 1.0 0.00 0.00 0.00 99 1020.1
20260906053544 63 325 0.0 1.0 0.00 0.00 0.00 99 1020.1
20260906053039 63 318 0.0 1.0 0.00 0.00 0.00 99 1020.1
20260906052534 63 316 0.0 0.0 0.00 0.00 0.00 99 1020.1
20260906052031 63 320 0.0 1.0 0.00 0.00 0.00 99 1020.1
20260906051527 63 306 0.0 1.0 0.00 0.00 0.00 99 1020.1
20260906051023 63 305 1.0 2.0 0.00 0.00 0.00 99 1019.8
20260906050518 63 288 1.0 2.0 0.00 0.00 0.00 99 1020.1
20260906050013 63 309 0.0 1.0 0.00 0.00 0.00 99 1020.1
20260906045511 62 311 0.0 0.0 0.00 0.00 0.00 99 1019.8
20260906045007 62 311 1.0 1.0 0.00 0.00 0.00 99 1019.8
20260906044502 63 311 0.0 0.0 0.00 0.00 0.00 99 1019.8
20260906043957 63 311 0.0 0.0 0.00 0.00 0.00 99 1020.1
20260906043453 63 311 0.0 0.0 0.00 0.00 0.00 99 1020.1
20260906042949 63 313 1.0 1.0 0.00 0.00 0.00 99 1020.1
20260906042448 63 313 0.0 0.0 0.00 0.00 0.00 99 1020.1
20260906041947 63 314 0.0 1.0 0.00 0.00 0.00 99 1020.1
20260906041444 63 315 1.0 1.0 0.00 0.00 0.00 99 1020.1
20260906040943 63 317 0.0 0.0 0.00 0.00 0.00 99 1019.8
20260906040438 63 319 0.0 0.0 0.00 0.00 0.00 99 1019.5
20260906035933 63 319 1.0 1.0 0.00 0.00 0.00 99 1019.8
20260906035429 63 323 0.0 0.0 0.00 0.00 0.00 99 1019.5
20260906034924 63 324 0.0 0.0 0.00 0.00 0.00 99 1019.8
20260906034419 63 324 0.0 1.0 0.00 0.00 0.00 99 1019.8
20260906033915 63 324 0.0 0.0 0.00 0.00 0.00 99 1019.8
20260906033414 63 325 1.0 1.0 0.00 0.00 0.00 99 1019.8
20260906032911 63 325 0.0 1.0 0.00 0.00 0.00 99 1019.8
20260906032407 63 325 0.0 0.0 0.00 0.00 0.00 99 1019.8
20260906031906 64 325 0.0 0.0 0.00 0.00 0.00 99 1019.8
20260906031402 64 325 0.0 1.0 0.00 0.00 0.00 99 1019.8
20260906030858 64 316 1.0 1.0 0.00 0.00 0.00 99 1019.5
20260906030352 64 319 0.0 0.0 0.00 0.00 0.00 99 1019.8
20260906025847 64 319 0.0 0.0 0.00 0.00 0.00 99 1019.8
20260906025341 64 319 0.0 0.0 0.00 0.00 0.00 99 1019.8
20260906024840 64 318 0.0 0.0 0.00 0.00 0.00 99 1019.8
20260906024339 64 314 0.0 0.0 0.00 0.00 0.00 99 1019.8
20260906023835 64 313 0.0 1.0 0.00 0.00 0.00 99 1019.8
20260906023331 64 313 0.0 1.0 0.00 0.00 0.00 99 1019.8
20260906022826 65 312 0.0 0.0 0.00 0.00 0.00 99 1019.8
20260906022321 65 335 0.0 1.0 0.00 0.00 0.00 99 1019.5
20260906021817 65 81 0.0 0.0 0.00 0.00 0.00 99 1019.5
20260906021316 65 82 0.0 0.0 0.00 0.00 0.00 99 1019.5
20260906020815 66 217 1.0 2.0 0.00 0.00 0.00 99 1019.5
20260906020316 65 323 0.0 1.0 0.00 0.00 0.00 99 1019.1
20260906015816 65 323 0.0 0.0 0.00 0.00 0.00 99 1019.5
20260906015315 65 323 0.0 0.0 0.00 0.00 0.00 99 1019.5
20260906014814 65 323 0.0 0.0 0.00 0.00 0.00 99 1019.5
20260906014310 66 323 0.0 0.0 0.00 0.00 0.00 99 1019.5
20260906013806 66 323 0.0 0.0 0.00 0.00 0.00 99 1019.5
20260906013300 66 323 0.0 0.0 0.00 0.00 0.00 99 1019.1
20260906012756 66 323 0.0 0.0 0.00 0.00 0.00 99 1019.1
20260906012251 66 323 0.0 0.0 0.00 0.00 0.00 99 1019.1
20260906011746 67 323 0.0 0.0 0.00 0.00 0.00 99 1019.1
20260906011246 67 323 0.0 0.0 0.00 0.00 0.00 99 1019.1
20260906010742 67 323 0.0 0.0 0.00 0.00 0.00 99 1019.5
20260906010238 67 323 0.0 0.0 0.00 0.00 0.00 99 1019.5
20260906005733 68 323 0.0 0.0 0.00 0.00 0.00 99 1019.5
20260906005232 68 323 0.0 0.0 0.00 0.00 0.00 99 1019.5
20260906004731 69 323 0.0 0.0 0.00 0.00 0.00 99 1019.5
20260906004226 69 323 0.0 0.0 0.00 0.00 0.00 99 1019.1
20260906003721 69 323 0.0 0.0 0.00 0.00 0.00 99 1019.1
20260906003217 69 323 0.0 0.0 0.00 0.00 0.00 98 1019.1
20260906002717 70 323 1.0 1.0 0.00 0.00 0.00 98 1019.5
20260906002212 70 323 0.0 1.0 0.00 0.00 0.00 98 1019.5
20260906001707 70 323 1.0 1.0 0.00 0.00 0.00 98 1019.5
20260906001207 70 328 1.0 1.0 0.00 0.00 0.00 98 1019.5
20260906000703 70 328 0.0 0.0 0.00 0.00 0.00 98 1019.1
20260906000158 70 328 0.0 1.0 0.00 0.00 0.00 98 1019.5
20260905235657 70 305 3.0 5.0 0.00 0.00 0.00 98 1019.5
20260905235152 70 309 3.0 3.0 0.00 0.00 0.00 98 1019.5
20260905234647 70 321 2.0 2.0 0.00 0.00 0.00 97 1019.5
20260905234142 70 314 2.0 2.0 0.00 0.00 0.00 98 1019.5
20260905233637 70 333 0.0 1.0 0.00 0.00 0.00 98 1019.8
20260905233137 70 326 0.0 1.0 0.00 0.00 0.00 98 1019.5
20260905232632 70 326 0.0 1.0 0.00 0.00 0.00 98 1019.5
20260905232128 70 283 2.0 2.0 0.00 0.00 0.00 98 1019.5
20260905231623 70 338 1.0 1.0 0.00 0.00 0.00 98 1019.5
20260905231119 70 347 1.0 1.0 0.00 0.00 0.00 98 1019.5
20260905230615 70 293 0.0 0.0 0.00 0.00 0.00 98 1019.5
20260905230113 70 300 1.0 1.0 0.00 0.00 0.00 98 1019.5
20260905225612 70 294 3.0 3.0 0.00 0.00 0.00 99 1019.1
20260905225107 71 353 0.0 1.0 0.00 0.00 0.00 99 1019.5
20260905224601 71 301 3.0 3.0 0.00 0.00 0.00 98 1019.1
20260905224101 71 257 2.0 5.0 0.00 0.00 0.00 98 1019.1
20260905223558 71 354 0.0 0.0 0.00 0.00 0.00 98 1019.1
20260905223054 71 316 3.0 3.0 0.00 0.00 0.00 98 1019.1
20260905222554 71 290 6.0 7.0 0.00 0.00 0.00 98 1019.1
20260905222049 72 330 5.0 6.0 0.00 0.00 0.00 98 1018.8
20260905221545 72 284 1.0 1.0 0.00 0.00 0.00 98 1018.8
20260905221041 72 301 3.0 3.0 0.00 0.00 0.00 98 1019.1
20260905220537 72 306 4.0 5.0 0.00 0.00 0.00 98 1018.8
20260905220033 72 330 2.0 3.0 0.00 0.00 0.00 98 1018.8
20260905215532 72 48 3.0 5.0 0.00 0.00 0.00 98 1018.8
20260905215028 72 40 1.0 2.0 0.00 0.00 0.00 99 1018.8
20260905214524 72 49 1.0 1.0 0.00 0.00 0.00 99 1018.8
20260905214019 71 277 2.0 3.0 0.00 0.00 0.00 98 1018.4
20260905213514 71 309 3.0 3.0 0.00 0.00 0.00 98 1018.8
20260905213010 72 325 2.0 2.0 0.00 0.00 0.00 99 1018.8
20260905212504 72 330 1.0 1.0 0.00 0.00 0.00 98 1018.8
20260905212003 72 269 2.0 3.0 0.00 0.00 0.00 98 1018.8
20260905211459 72 332 2.0 3.0 0.00 0.00 0.00 99 1018.8
20260905210955 72 310 3.0 5.0 0.00 0.00 0.00 99 1018.8
20260905210450 72 308 2.0 2.0 0.00 0.00 0.00 98 1019.1
20260905205949 72 315 1.0 1.0 0.00 0.00 0.00 98 1018.8
20260905205444 72 328 1.0 1.0 0.00 0.00 0.00 98 1018.8
20260905204943 72 268 4.0 6.0 0.00 0.00 0.00 98 1018.8
20260905204439 72 334 1.0 1.0 0.00 0.00 0.00 98 1018.8
20260905203938 72 299 1.0 1.0 0.00 0.00 0.00 98 1018.8
20260905203434 72 324 1.0 1.0 0.00 0.00 0.00 98 1018.8
20260905202929 73 318 1.0 1.0 0.00 0.00 0.00 99 1018.8
20260905202425 72 359 1.0 1.0 0.00 0.00 0.00 99 1018.8
20260905201920 72 358 1.0 1.0 0.00 0.00 0.00 99 1018.8
20260905201416 71 330 1.0 1.0 0.00 0.00 0.00 99 1018.8
20260905200915 71 277 3.0 3.0 0.00 0.00 0.00 99 1018.8
20260905200411 71 273 3.0 3.0 0.00 0.00 0.00 99 1018.8
20260905195908 71 356 0.0 0.0 0.00 0.00 0.00 99 1018.8
20260905195404 71 320 2.0 3.0 0.00 0.00 0.00 99 1018.8
20260905194900 71 295 1.0 2.0 0.00 0.00 0.00 99 1018.8
20260905194359 71 308 2.0 2.0 0.00 0.00 0.00 99 1018.8
20260905193853 71 326 0.0 1.0 0.00 0.00 0.00 99 1018.8
20260905193348 71 282 2.0 2.0 0.00 0.00 0.00 99 1019.1
20260905192844 71 308 2.0 2.0 0.00 0.00 0.00 99 1018.8
20260905192339 72 328 0.0 1.0 0.00 0.00 0.00 99 1019.1
20260905191838 72 274 2.0 3.0 0.00 0.00 0.00 99 1018.8
20260905191338 72 290 0.0 1.0 0.00 0.00 0.00 99 1018.8
20260905190837 72 239 3.0 5.0 0.00 0.00 0.00 99 1018.8
20260905190331 72 320 1.0 5.0 0.00 0.00 0.00 99 1019.1
20260905185829 72 333 2.0 3.0 0.00 0.00 0.00 99 1018.8
20260905185325 72 319 2.0 2.0 0.00 0.00 0.00 99 1018.8
20260905184818 73 257 4.0 6.0 0.00 0.00 0.00 99 1018.8
20260905184317 73 298 2.0 2.0 0.00 0.00 0.00 99 1018.8
20260905183815 73 295 6.0 10.0 0.00 0.00 0.00 99 1018.8
20260905183311 73 275 5.0 7.0 0.00 0.00 0.00 99 1018.8
20260905182806 74 314 3.0 3.0 0.00 0.00 0.00 98 1018.8
20260905182306 74 355 0.0 0.0 0.00 0.00 0.00 99 1018.8
20260905181802 73 256 2.0 2.0 0.00 0.00 0.00 99 1018.8
20260905181300 73 312 3.0 3.0 0.00 0.00 0.00 99 1018.8
20260905180754 73 339 4.0 6.0 0.00 0.00 0.00 99 1018.8
20260905180249 73 316 1.0 3.0 0.00 0.00 0.00 99 1018.8
20260905175744 74 289 3.0 5.0 0.00 0.00 0.00 99 1018.8
20260905175239 74 303 5.0 7.0 0.00 0.00 0.00 99 1018.8
20260905174734 74 330 3.0 5.0 0.00 0.00 0.00 99 1019.1
20260905174229 74 237 4.0 6.0 0.00 0.00 0.00 99 1018.4
20260905173720 74 277 4.0 5.0 0.00 0.00 0.00 99 1018.8
20260905173215 74 337 1.0 2.0 0.00 0.00 0.00 99 1018.8
20260905172709 74 247 3.0 3.0 0.00 0.00 0.00 99 1018.8
20260905172203 74 305 3.0 3.0 0.00 0.00 0.00 98 1018.8
20260905171659 75 319 1.0 2.0 0.00 0.00 0.00 98 1018.8
20260905171155 75 323 2.0 2.0 0.00 0.00 0.00 97 1018.8
20260905170652 75 335 3.0 5.0 0.00 0.00 0.00 96 1018.8
20260905170147 75 258 5.0 9.0 0.00 0.00 0.00 96 1018.8
20260905165646 75 329 1.0 1.0 0.00 0.00 0.00 96 1018.8
20260905165142 76 267 3.0 5.0 0.00 0.00 0.00 95 1018.8
20260905164636 76 253 2.0 2.0 0.00 0.00 0.00 95 1018.4
20260905164136 75 357 3.0 3.0 0.00 0.00 0.00 95 1018.8
20260905163632 75 294 2.0 3.0 0.00 0.00 0.00 96 1018.8
20260905163128 74 19 1.0 2.0 0.00 0.00 0.00 97 1018.8
20260905162624 74 316 2.0 2.0 0.00 0.00 0.00 98 1018.8
20260905162123 74 300 2.0 2.0 0.00 0.00 0.00 97 1018.8
20260905161623 74 345 1.0 2.0 0.00 0.00 0.00 98 1018.8
20260905161121 73 264 2.0 2.0 0.00 0.00 0.00 98 1018.8
20260905160620 73 306 7.0 9.0 0.00 0.00 0.00 98 1018.8
20260905160115 74 285 1.0 1.0 0.00 0.00 0.00 98 1019.1
20260905155609 73 323 1.0 1.0 0.00 0.00 0.00 98 1018.8
20260905155108 73 342 2.0 3.0 0.00 0.00 0.00 98 1018.8
20260905154608 73 316 1.0 1.0 0.00 0.00 0.00 98 1018.8
20260905154104 73 329 3.0 3.0 0.00 0.00 0.00 98 1018.8
20260905153559 73 301 5.0 7.0 0.00 0.00 0.00 97 1018.4
20260905153054 74 308 7.0 9.0 0.00 0.00 0.00 97 1018.4
20260905152549 74 299 2.0 2.0 0.00 0.00 0.00 97 1018.4
20260905152044 74 252 1.0 2.0 0.00 0.00 0.00 97 1018.4
20260905151539 75 290 3.0 3.0 0.00 0.00 0.00 97 1018.1
20260905151034 75 310 1.0 1.0 0.00 0.00 0.00 98 1018.1
20260905150530 74 51 1.0 1.0 0.00 0.00 0.00 99 1018.4
20260905150028 73 298 2.0 3.0 0.00 0.00 0.00 99 1018.4
20260905145521 72 289 3.0 3.0 0.00 0.00 0.00 99 1018.4
20260905145021 72 322 2.0 2.0 0.00 0.00 0.00 99 1018.1
20260905144516 71 61 3.0 5.0 0.00 0.00 0.00 99 1018.1
20260905144015 71 283 1.0 2.0 0.00 0.00 0.00 99 1018.1
20260905143514 71 291 2.0 2.0 0.00 0.00 0.00 99 1018.1